Location: Ergnies
(50.0854°N, 2.0375°E)
Time: 11:01:14
(UTC+00:00)

Meteor 1-11 Rocket - Pass Details

Date: 14 January 2026
Orbit: 829 x 915 km, 81.2° (Epoch: 10 February)

Event Time Altitude Azimuth Distance (km) Brightness Sun altitude
Exits shadow 05:09:25 52° 311° (NW) 1,091 3.9 -24.3°
Drops below altitude 10° 05:14:28 10° 5° (N) 2,533 6.2 -23.5°
Sets 05:16:57 0° 10° (N) 3,462 6.9 -23.1°
